Time,TemperatureF,DewpointF,PressureIn,WindDirection,WindDirectionDegrees,WindSpeedMPH,WindSpeedGustMPH,Humidity,HourlyPrecipIn,Conditions,Clouds,dailyrainin,SoftwareType,DateUTC
2013-06-25 00:01:00,71.8,64.6,30.02,East,101,0.0,2.0,78,0.00,,,0.34,meteohub,2013-06-25 04:01:00,
2013-06-25 00:02:00,71.8,64.6,30.03,East,101,0.0,2.0,78,0.00,,,0.34,meteohub,2013-06-25 04:02:00,
2013-06-25 00:03:00,71.8,64.6,30.03,East,96,0.0,2.0,78,0.00,,,0.34,meteohub,2013-06-25 04:03:00,
2013-06-25 00:09:00,72.1,64.2,30.03,ESE,122,0.0,2.0,76,0.00,,,0.00,meteohub,2013-06-25 04:09:00,
2013-06-25 00:15:00,72.5,64.0,30.02,ESE,122,0.0,1.0,75,0.00,,,0.00,meteohub,2013-06-25 04:15:00,
2013-06-25 00:21:00,72.3,64.4,30.03,ESE,122,0.0,1.0,76,0.00,,,0.00,meteohub,2013-06-25 04:21:00,
2013-06-25 00:27:00,72.3,65.1,30.03,SE,126,0.0,1.0,78,0.00,,,0.00,meteohub,2013-06-25 04:27:00,
2013-06-25 00:32:00,72.1,64.6,30.03,SSE,165,0.0,2.0,77,0.00,,,0.00,meteohub,2013-06-25 04:32:00,
2013-06-25 00:37:00,72.0,64.8,30.02,SSE,165,0.0,3.0,78,0.00,,,0.00,meteohub,2013-06-25 04:37:00,
2013-06-25 00:42:00,72.0,64.8,30.02,SSE,165,0.0,3.0,78,0.00,,,0.00,meteohub,2013-06-25 04:42:00,
2013-06-25 00:47:00,71.8,64.2,30.02,SSE,165,0.0,1.0,77,0.00,,,0.00,meteohub,2013-06-25 04:47:00,
2013-06-25 00:52:00,71.8,64.2,30.02,East,94,2.0,2.0,77,0.00,,,0.00,meteohub,2013-06-25 04:52:00,
2013-06-25 00:58:00,71.8,64.2,30.02,ESE,107,0.0,3.0,77,0.00,,,0.00,meteohub,2013-06-25 04:58:00,
2013-06-25 01:04:00,71.6,64.8,30.02,SSE,159,0.0,3.0,79,0.00,,,0.00,meteohub,2013-06-25 05:04:00,
2013-06-25 01:10:00,71.2,64.4,30.02,ESE,108,0.0,2.0,79,0.00,,,0.00,meteohub,2013-06-25 05:10:00,
2013-06-25 01:16:00,71.2,64.8,30.02,East,90,0.0,2.0,80,0.00,,,0.00,meteohub,2013-06-25 05:16:00,
2013-06-25 01:22:00,71.2,64.8,30.03,SSE,164,0.0,2.0,80,0.00,,,0.00,meteohub,2013-06-25 05:22:00,
2013-06-25 01:27:00,71.2,64.8,30.03,ESE,113,0.0,2.0,80,0.00,,,0.00,meteohub,2013-06-25 05:27:00,
2013-06-25 01:32:00,71.2,65.1,30.03,SSE,148,0.0,2.0,81,0.00,,,0.00,meteohub,2013-06-25 05:32:00,
2013-06-25 01:37:00,71.2,65.1,30.03,ESE,105,0.0,2.0,81,0.00,,,0.00,meteohub,2013-06-25 05:37:00,
2013-06-25 01:42:00,71.2,65.1,30.03,East,81,0.0,2.0,81,0.00,,,0.00,meteohub,2013-06-25 05:42:00,
2013-06-25 01:47:00,71.1,64.9,30.03,East,97,0.0,2.0,81,0.00,,,0.00,meteohub,2013-06-25 05:47:00,
2013-06-25 01:52:00,71.2,65.1,30.03,East,93,0.0,2.0,81,0.00,,,0.00,meteohub,2013-06-25 05:52:00,
2013-06-25 01:57:00,71.2,65.1,30.03,ENE,58,1.0,2.0,81,0.00,,,0.00,meteohub,2013-06-25 05:57:00,
2013-06-25 02:02:00,71.4,65.3,30.02,SE,126,0.0,2.0,81,0.00,,,0.00,meteohub,2013-06-25 06:02:00,
2013-06-25 02:07:00,71.4,65.3,30.02,SE,126,0.0,1.0,81,0.00,,,0.00,meteohub,2013-06-25 06:07:00,
2013-06-25 02:12:00,71.2,65.1,30.02,South,180,0.0,1.0,81,0.00,,,0.00,meteohub,2013-06-25 06:12:00,
2013-06-25 02:17:00,71.2,65.1,30.02,South,179,0.0,1.0,81,0.00,,,0.00,meteohub,2013-06-25 06:17:00,
2013-06-25 02:22:00,71.2,65.1,30.02,ESE,113,0.0,2.0,81,0.00,,,0.00,meteohub,2013-06-25 06:22:00,
2013-06-25 02:27:00,71.1,65.3,30.02,ESE,113,0.0,2.0,82,0.00,,,0.00,meteohub,2013-06-25 06:27:00,
2013-06-25 02:32:00,70.9,65.1,30.02,ESE,113,0.0,2.0,82,0.00,,,0.00,meteohub,2013-06-25 06:32:00,
2013-06-25 02:37:00,70.7,65.3,30.02,ESE,107,0.0,1.0,83,0.00,,,0.00,meteohub,2013-06-25 06:37:00,
2013-06-25 02:42:00,70.9,65.5,30.02,ESE,103,0.0,1.0,83,0.00,,,0.00,meteohub,2013-06-25 06:42:00,
2013-06-25 02:47:00,71.1,65.3,30.02,ESE,106,0.0,1.0,82,0.00,,,0.00,meteohub,2013-06-25 06:47:00,
2013-06-25 02:52:00,71.2,65.5,30.02,ESE,106,0.0,1.0,82,0.00,,,0.00,meteohub,2013-06-25 06:52:00,
2013-06-25 02:57:00,71.4,65.3,30.01,SE,143,0.0,0.0,81,0.00,,,0.00,meteohub,2013-06-25 06:57:00,
2013-06-25 03:02:00,71.6,65.5,30.01,SE,143,0.0,0.0,81,0.00,,,0.00,meteohub,2013-06-25 07:02:00,
2013-06-25 03:07:00,71.4,65.3,30.01,SE,138,0.0,0.0,81,0.00,,,0.00,meteohub,2013-06-25 07:07:00,
2013-06-25 03:12:00,71.2,65.5,30.01,SE,138,0.0,0.0,82,0.00,,,0.00,meteohub,2013-06-25 07:12:00,
2013-06-25 03:17:00,71.1,65.7,30.01,SE,138,0.0,0.0,83,0.00,,,0.00,meteohub,2013-06-25 07:17:00,
2013-06-25 03:22:00,70.9,65.5,30.01,SE,137,0.0,0.0,83,0.00,,,0.00,meteohub,2013-06-25 07:22:00,
2013-06-25 03:27:00,70.7,65.3,30.00,ESE,120,0.0,0.0,83,0.00,,,0.00,meteohub,2013-06-25 07:27:00,
2013-06-25 03:32:00,70.5,65.5,30.00,ESE,121,0.0,2.0,84,0.00,,,0.00,meteohub,2013-06-25 07:32:00,
2013-06-25 03:37:00,70.5,65.5,30.00,ESE,121,0.0,2.0,84,0.00,,,0.00,meteohub,2013-06-25 07:37:00,
2013-06-25 03:42:00,70.5,65.5,30.00,ESE,117,1.0,2.0,84,0.00,,,0.00,meteohub,2013-06-25 07:42:00,
2013-06-25 03:47:00,70.9,65.5,30.00,South,173,0.0,2.0,83,0.00,,,0.00,meteohub,2013-06-25 07:47:00,
2013-06-25 03:52:00,71.2,65.5,30.00,SSE,148,1.0,2.0,82,0.00,,,0.00,meteohub,2013-06-25 07:52:00,
2013-06-25 03:57:00,71.6,65.8,29.99,SSE,155,0.0,2.0,82,0.00,,,0.00,meteohub,2013-06-25 07:57:00,
2013-06-25 04:02:00,71.8,65.7,29.99,ESE,123,0.0,2.0,81,0.00,,,0.00,meteohub,2013-06-25 08:02:00,
2013-06-25 04:07:00,71.6,65.8,29.99,ESE,116,0.0,2.0,82,0.00,,,0.00,meteohub,2013-06-25 08:07:00,
2013-06-25 04:12:00,71.4,65.7,29.99,ESE,118,0.0,2.0,82,0.00,,,0.00,meteohub,2013-06-25 08:12:00,
2013-06-25 04:17:00,71.2,65.8,29.99,ESE,118,0.0,2.0,83,0.00,,,0.00,meteohub,2013-06-25 08:17:00,
2013-06-25 04:22:00,70.9,65.5,29.99,ESE,117,0.0,2.0,83,0.00,,,0.00,meteohub,2013-06-25 08:22:00,
2013-06-25 04:27:00,70.7,65.7,29.99,ESE,117,0.0,2.0,84,0.00,,,0.00,meteohub,2013-06-25 08:27:00,
2013-06-25 04:32:00,70.5,65.5,29.99,SSE,157,0.0,1.0,84,0.00,,,0.00,meteohub,2013-06-25 08:32:00,
2013-06-25 04:37:00,70.3,65.7,29.99,SSE,157,0.0,1.0,85,0.00,,,0.00,meteohub,2013-06-25 08:37:00,
2013-06-25 04:42:00,70.2,65.5,29.99,ESE,115,0.0,1.0,85,0.00,,,0.00,meteohub,2013-06-25 08:42:00,
2013-06-25 04:47:00,70.0,65.3,29.99,ESE,121,0.0,1.0,85,0.00,,,0.00,meteohub,2013-06-25 08:47:00,
2013-06-25 04:52:00,70.0,65.7,29.99,ESE,121,0.0,1.0,86,0.00,,,0.00,meteohub,2013-06-25 08:52:00,
2013-06-25 04:57:00,69.8,65.5,29.99,ESE,121,0.0,1.0,86,0.00,,,0.00,meteohub,2013-06-25 08:57:00,
2013-06-25 05:02:00,69.6,65.3,29.99,ESE,121,0.0,0.0,86,0.00,,,0.00,meteohub,2013-06-25 09:02:00,
2013-06-25 05:07:00,69.4,65.5,29.99,ESE,121,0.0,0.0,87,0.00,,,0.00,meteohub,2013-06-25 09:07:00,
2013-06-25 05:12:00,69.3,65.3,29.99,SE,126,0.0,0.0,87,0.00,,,0.00,meteohub,2013-06-25 09:12:00,
2013-06-25 05:17:00,69.3,65.3,29.98,SE,126,0.0,0.0,87,0.00,,,0.00,meteohub,2013-06-25 09:17:00,
2013-06-25 05:22:00,69.3,65.3,29.99,SE,126,0.0,0.0,87,0.00,,,0.00,meteohub,2013-06-25 09:22:00,
2013-06-25 05:27:00,69.3,64.9,29.99,ESE,118,0.0,0.0,86,0.00,,,0.00,meteohub,2013-06-25 09:27:00,
2013-06-25 05:32:00,69.4,65.1,29.99,East,93,0.0,1.0,86,0.00,,,0.00,meteohub,2013-06-25 09:32:00,
2013-06-25 05:37:00,69.6,65.3,29.99,SSE,153,0.0,1.0,86,0.00,,,0.00,meteohub,2013-06-25 09:37:00,
2013-06-25 05:42:00,69.6,65.3,29.99,ESE,112,1.0,1.0,86,0.00,,,0.00,meteohub,2013-06-25 09:42:00,
2013-06-25 05:47:00,69.6,65.3,29.99,ESE,112,0.0,1.0,86,0.00,,,0.00,meteohub,2013-06-25 09:47:00,
2013-06-25 05:52:00,69.4,65.1,29.99,East,96,0.0,1.0,86,0.00,,,0.00,meteohub,2013-06-25 09:52:00,
2013-06-25 05:57:00,69.4,65.1,29.99,East,101,0.0,1.0,86,0.00,,,0.00,meteohub,2013-06-25 09:57:00,
2013-06-25 06:02:00,69.4,65.1,29.99,ESE,118,0.0,2.0,86,0.00,,,0.00,meteohub,2013-06-25 10:02:00,
2013-06-25 06:07:00,69.1,64.8,30.00,ESE,117,1.0,2.0,86,0.00,,,0.00,meteohub,2013-06-25 10:07:00,
2013-06-25 06:12:00,68.7,64.8,30.00,SE,143,0.0,2.0,87,0.00,,,0.00,meteohub,2013-06-25 10:12:00,
2013-06-25 06:17:00,68.5,64.8,30.00,SE,141,0.0,2.0,88,0.00,,,0.00,meteohub,2013-06-25 10:17:00,
2013-06-25 06:22:00,68.4,64.6,29.99,ESE,117,0.0,1.0,88,0.00,,,0.00,meteohub,2013-06-25 10:22:00,
2013-06-25 06:27:00,68.5,64.8,30.00,ESE,111,0.0,1.0,88,0.00,,,0.00,meteohub,2013-06-25 10:27:00,
2013-06-25 06:32:00,68.7,64.9,29.99,ESE,112,0.0,1.0,88,0.00,,,0.00,meteohub,2013-06-25 10:32:00,
2013-06-25 06:37:00,69.1,65.1,29.99,SSW,211,0.0,1.0,87,0.00,,,0.00,meteohub,2013-06-25 10:37:00,
2013-06-25 06:42:00,69.3,65.3,29.99,South,180,0.0,1.0,87,0.00,,,0.00,meteohub,2013-06-25 10:42:00,
2013-06-25 06:47:00,69.6,65.3,29.99,ENE,59,0.0,1.0,86,0.00,,,0.00,meteohub,2013-06-25 10:47:00,
2013-06-25 06:52:00,69.6,64.9,30.00,ENE,75,0.0,2.0,85,0.00,,,0.00,meteohub,2013-06-25 10:52:00,
2013-06-25 06:57:00,70.0,65.3,30.00,ESE,102,0.0,2.0,85,0.00,,,0.00,meteohub,2013-06-25 10:57:00,
2013-06-25 07:02:00,70.3,65.7,30.00,East,101,0.0,2.0,85,0.00,,,0.00,meteohub,2013-06-25 11:02:00,
2013-06-25 07:07:00,70.5,65.8,30.00,East,101,0.0,2.0,85,0.00,,,0.00,meteohub,2013-06-25 11:07:00,
2013-06-25 07:12:00,70.5,65.8,30.01,East,101,0.0,1.0,85,0.00,,,0.00,meteohub,2013-06-25 11:12:00,
2013-06-25 07:17:00,70.5,65.8,30.01,East,101,0.0,0.0,85,0.00,,,0.00,meteohub,2013-06-25 11:17:00,
2013-06-25 07:22:00,70.3,65.7,30.01,East,101,0.0,0.0,85,0.00,,,0.00,meteohub,2013-06-25 11:22:00,
2013-06-25 07:27:00,70.3,65.3,30.01,SSE,153,0.0,1.0,84,0.00,,,0.00,meteohub,2013-06-25 11:27:00,
2013-06-25 07:32:00,70.3,65.3,30.01,SSE,152,1.0,2.0,84,0.00,,,0.00,meteohub,2013-06-25 11:32:00,
2013-06-25 07:37:00,70.3,65.3,30.01,ESE,114,0.0,2.0,84,0.00,,,0.00,meteohub,2013-06-25 11:37:00,
2013-06-25 07:42:00,70.5,66.2,30.01,SE,143,0.0,2.0,86,0.00,,,0.00,meteohub,2013-06-25 11:42:00,
2013-06-25 07:47:00,70.9,66.6,30.01,SSE,147,0.0,2.0,86,0.00,,,0.00,meteohub,2013-06-25 11:47:00,
2013-06-25 07:52:00,71.1,66.4,30.01,SE,146,0.0,0.0,85,0.00,,,0.00,meteohub,2013-06-25 11:52:00,
2013-06-25 07:57:00,71.2,66.2,30.02,SSE,155,0.0,0.0,84,0.00,,,0.00,meteohub,2013-06-25 11:57:00,
2013-06-25 08:02:00,71.6,66.6,30.01,SSE,155,0.0,2.0,84,0.00,,,0.00,meteohub,2013-06-25 12:02:00,
2013-06-25 08:07:00,72.0,66.9,30.02,South,190,0.0,2.0,84,0.00,,,0.00,meteohub,2013-06-25 12:07:00,
2013-06-25 08:12:00,72.1,67.5,30.02,South,191,0.0,2.0,85,0.00,,,0.00,meteohub,2013-06-25 12:12:00,
2013-06-25 08:17:00,72.3,67.6,30.02,South,178,0.0,2.0,85,0.00,,,0.00,meteohub,2013-06-25 12:17:00,
2013-06-25 08:22:00,72.7,67.6,30.02,SSE,156,0.0,2.0,84,0.00,,,0.00,meteohub,2013-06-25 12:22:00,
2013-06-25 08:32:00,73.2,67.8,30.02,SE,138,0.0,0.0,83,0.00,,,0.00,meteohub,2013-06-25 12:32:00,
2013-06-25 08:37:00,73.4,68.2,30.02,SSW,206,0.0,0.0,84,0.00,,,0.00,meteohub,2013-06-25 12:37:00,
2013-06-25 08:43:00,73.8,68.5,30.02,SSW,206,0.0,1.0,84,0.00,,,0.00,meteohub,2013-06-25 12:43:00,
2013-06-25 08:49:00,74.1,68.5,30.02,SE,141,0.0,1.0,83,0.00,,,0.00,meteohub,2013-06-25 12:49:00,
2013-06-25 08:55:00,74.7,69.1,30.02,South,190,0.0,1.0,83,0.00,,,0.00,meteohub,2013-06-25 12:55:00,
2013-06-25 09:02:00,75.0,68.0,30.02,SSE,153,0.0,2.0,79,0.00,,,0.00,meteohub,2013-06-25 13:02:00,
2013-06-25 09:07:00,75.4,69.1,30.02,SE,130,0.0,2.0,81,0.00,,,0.00,meteohub,2013-06-25 13:07:00,
2013-06-25 09:12:00,75.7,68.4,30.02,South,176,1.0,3.0,78,0.00,,,0.00,meteohub,2013-06-25 13:12:00,
2013-06-25 09:17:00,76.1,69.1,30.02,SSE,166,1.0,3.0,79,0.00,,,0.00,meteohub,2013-06-25 13:17:00,
2013-06-25 09:22:00,76.6,68.9,30.02,SSE,159,0.0,4.0,77,0.00,,,0.00,meteohub,2013-06-25 13:22:00,
2013-06-25 09:27:00,77.5,69.8,30.02,SE,133,2.0,4.0,77,0.00,,,0.00,meteohub,2013-06-25 13:27:00,
2013-06-25 09:32:00,78.1,70.3,30.02,NNW,348,0.0,4.0,77,0.00,,,0.00,meteohub,2013-06-25 13:32:00,
2013-06-25 09:37:00,78.3,70.5,30.02,NNW,337,2.0,4.0,77,0.00,,,0.00,meteohub,2013-06-25 13:37:00,
2013-06-25 09:42:00,78.1,70.0,30.02,NW,323,0.0,4.0,76,0.00,,,0.00,meteohub,2013-06-25 13:42:00,
2013-06-25 09:47:00,78.1,70.0,30.02,WNW,300,1.0,2.0,76,0.00,,,0.00,meteohub,2013-06-25 13:47:00,
2013-06-25 09:52:00,78.3,70.0,30.02,WNW,299,2.0,3.0,76,0.00,,,0.00,meteohub,2013-06-25 13:52:00,
2013-06-25 10:01:00,78.4,69.4,30.02,NW,325,1.0,3.0,74,0.00,,,0.00,meteohub,2013-06-25 14:01:00,
2013-06-25 10:07:00,78.8,70.2,30.02,NNW,327,0.0,3.0,75,0.00,,,0.00,meteohub,2013-06-25 14:07:00,
2013-06-25 10:12:00,79.0,70.3,30.02,WNW,299,2.0,3.0,75,0.00,,,0.00,meteohub,2013-06-25 14:12:00,
2013-06-25 10:17:00,79.2,70.5,30.02,WNW,303,1.0,3.0,75,0.00,,,0.00,meteohub,2013-06-25 14:17:00,
2013-06-25 10:22:00,79.9,71.6,30.02,WNW,298,2.0,4.0,76,0.00,,,0.00,meteohub,2013-06-25 14:22:00,
2013-06-25 10:27:00,80.4,71.8,30.02,NW,309,0.0,5.0,75,0.00,,,0.00,meteohub,2013-06-25 14:27:00,
2013-06-25 10:32:00,81.1,72.5,30.02,North,9,2.0,5.0,75,0.00,,,0.00,meteohub,2013-06-25 14:32:00,
2013-06-25 10:37:00,81.3,71.8,30.02,WNW,294,2.0,5.0,73,0.00,,,0.00,meteohub,2013-06-25 14:37:00,
2013-06-25 10:42:00,80.6,70.7,30.02,WNW,300,2.0,4.0,72,0.00,,,0.00,meteohub,2013-06-25 14:42:00,
2013-06-25 10:47:00,80.1,71.1,30.02,WNW,298,1.0,5.0,74,0.00,,,0.00,meteohub,2013-06-25 14:47:00,
2013-06-25 10:52:00,80.1,71.8,30.02,WNW,298,0.0,5.0,76,0.00,,,0.00,meteohub,2013-06-25 14:52:00,
2013-06-25 10:57:00,80.4,70.9,30.02,NNW,327,1.0,3.0,73,0.00,,,0.00,meteohub,2013-06-25 14:57:00,
2013-06-25 11:02:00,80.4,71.4,30.01,NNW,340,1.0,3.0,74,0.00,,,0.00,meteohub,2013-06-25 15:02:00,
2013-06-25 11:07:00,80.4,71.4,30.01,WNW,301,1.0,3.0,74,0.00,,,0.00,meteohub,2013-06-25 15:07:00,
2013-06-25 11:12:00,81.0,72.0,30.01,NW,317,1.0,3.0,74,0.00,,,0.00,meteohub,2013-06-25 15:12:00,
2013-06-25 11:17:00,81.7,71.8,30.01,NW,325,2.0,3.0,72,0.00,,,0.00,meteohub,2013-06-25 15:17:00,
2013-06-25 11:22:00,82.0,71.2,30.01,WNW,297,2.0,5.0,70,0.00,,,0.00,meteohub,2013-06-25 15:22:00,
2013-06-25 11:27:00,82.6,73.0,30.01,WNW,300,1.0,5.0,73,0.00,,,0.00,meteohub,2013-06-25 15:27:00,
2013-06-25 11:32:00,82.8,72.9,30.01,WNW,294,3.0,4.0,72,0.00,,,0.00,meteohub,2013-06-25 15:32:00,
2013-06-25 11:37:00,82.0,71.2,30.01,WNW,296,1.0,4.0,70,0.00,,,0.00,meteohub,2013-06-25 15:37:00,
2013-06-25 11:42:00,82.0,72.1,30.01,WNW,292,3.0,4.0,72,0.00,,,0.00,meteohub,2013-06-25 15:42:00,
2013-06-25 11:47:00,82.6,72.7,30.01,WNW,298,2.0,4.0,72,0.00,,,0.00,meteohub,2013-06-25 15:47:00,
2013-06-25 11:52:00,83.1,73.2,30.01,NW,306,2.0,4.0,72,0.00,,,0.00,meteohub,2013-06-25 15:52:00,
2013-06-25 11:57:00,82.9,71.8,30.00,NW,321,1.0,4.0,69,0.00,,,0.00,meteohub,2013-06-25 15:57:00,
2013-06-25 12:02:00,83.1,72.3,30.00,WNW,302,1.0,4.0,70,0.00,,,0.00,meteohub,2013-06-25 16:02:00,
2013-06-25 12:07:00,83.7,73.2,30.00,WNW,298,0.0,4.0,71,0.00,,,0.00,meteohub,2013-06-25 16:07:00,
2013-06-25 12:12:00,83.8,73.0,30.00,WNW,298,1.0,3.0,70,0.00,,,0.00,meteohub,2013-06-25 16:12:00,
2013-06-25 12:17:00,83.8,72.5,30.00,WNW,300,2.0,4.0,69,0.00,,,0.00,meteohub,2013-06-25 16:17:00,
2013-06-25 12:22:00,83.8,71.2,30.00,WNW,294,0.0,4.0,66,0.00,,,0.00,meteohub,2013-06-25 16:22:00,
2013-06-25 12:27:00,83.7,70.2,30.00,WNW,298,4.0,5.0,64,0.00,,,0.00,meteohub,2013-06-25 16:27:00,
2013-06-25 12:32:00,83.7,70.2,30.00,NW,323,4.0,6.0,64,0.00,,,0.00,meteohub,2013-06-25 16:32:00,
2013-06-25 12:37:00,83.7,70.7,30.00,WNW,302,2.0,6.0,65,0.00,,,0.00,meteohub,2013-06-25 16:37:00,
2013-06-25 12:42:00,84.0,70.5,29.99,NW,308,1.0,5.0,64,0.00,,,0.00,meteohub,2013-06-25 16:42:00,
2013-06-25 12:47:00,84.4,71.2,29.99,WNW,302,0.0,5.0,65,0.00,,,0.00,meteohub,2013-06-25 16:47:00,
2013-06-25 12:52:00,84.7,72.5,29.99,WNW,295,3.0,5.0,67,0.00,,,0.00,meteohub,2013-06-25 16:52:00,
2013-06-25 12:57:00,85.1,73.8,29.99,NW,304,3.0,4.0,69,0.00,,,0.00,meteohub,2013-06-25 16:57:00,
2013-06-25 13:03:00,85.5,70.5,29.99,NW,305,3.0,4.0,61,0.00,,,0.00,meteohub,2013-06-25 17:03:00,
2013-06-25 13:09:00,85.3,70.7,29.98,NNW,338,5.0,5.0,62,0.00,,,0.00,meteohub,2013-06-25 17:09:00,
2013-06-25 13:15:00,85.6,70.7,29.98,NW,315,1.0,5.0,61,0.00,,,0.00,meteohub,2013-06-25 17:15:00,
2013-06-25 13:21:00,86.2,71.6,29.98,WNW,302,1.0,5.0,62,0.00,,,0.00,meteohub,2013-06-25 17:21:00,
2013-06-25 13:27:00,86.2,71.6,29.97,NW,306,3.0,4.0,62,0.00,,,0.00,meteohub,2013-06-25 17:27:00,
2013-06-25 13:32:00,86.2,71.6,29.97,NW,318,2.0,4.0,62,0.00,,,0.00,meteohub,2013-06-25 17:32:00,
2013-06-25 13:39:00,86.7,71.2,29.97,NW,304,2.0,5.0,60,0.00,,,0.00,meteohub,2013-06-25 17:39:00,
2013-06-25 13:45:00,86.9,70.9,29.97,WNW,290,2.0,5.0,59,0.00,,,0.00,meteohub,2013-06-25 17:45:00,
2013-06-25 13:51:00,87.6,72.5,29.97,WNW,297,1.0,4.0,61,0.00,,,0.00,meteohub,2013-06-25 17:51:00,
2013-06-25 13:57:00,87.6,70.5,29.97,WNW,300,3.0,4.0,57,0.00,,,0.00,meteohub,2013-06-25 17:57:00,
2013-06-25 14:02:00,87.4,69.8,29.96,WNW,296,1.0,4.0,56,0.00,,,0.00,meteohub,2013-06-25 18:02:00,
2013-06-25 14:07:00,87.6,73.0,29.96,WNW,297,0.0,4.0,62,0.00,,,0.00,meteohub,2013-06-25 18:07:00,
2013-06-25 14:12:00,88.2,74.5,29.96,WNW,300,2.0,4.0,64,0.00,,,0.00,meteohub,2013-06-25 18:12:00,
2013-06-25 14:17:00,88.0,70.9,29.96,WNW,298,2.0,4.0,57,0.00,,,0.00,meteohub,2013-06-25 18:17:00,
2013-06-25 14:22:00,88.0,69.8,29.96,WNW,292,1.0,4.0,55,0.00,,,0.00,meteohub,2013-06-25 18:22:00,
2013-06-25 14:27:00,88.2,70.0,29.96,NW,306,2.0,4.0,55,0.00,,,0.00,meteohub,2013-06-25 18:27:00,
2013-06-25 14:32:00,88.0,70.9,29.96,NW,311,2.0,4.0,57,0.00,,,0.00,meteohub,2013-06-25 18:32:00,
2013-06-25 14:37:00,87.6,70.0,29.96,WNW,292,3.0,4.0,56,0.00,,,0.00,meteohub,2013-06-25 18:37:00,
2013-06-25 14:42:00,88.0,70.9,29.96,WNW,300,3.0,4.0,57,0.00,,,0.00,meteohub,2013-06-25 18:42:00,
2013-06-25 14:47:00,88.3,71.2,29.96,WNW,302,3.0,4.0,57,0.00,,,0.00,meteohub,2013-06-25 18:47:00,
2013-06-25 14:52:00,88.5,70.9,29.96,WNW,296,2.0,4.0,56,0.00,,,0.00,meteohub,2013-06-25 18:52:00,
2013-06-25 14:57:00,88.3,70.7,29.96,WNW,286,2.0,4.0,56,0.00,,,0.00,meteohub,2013-06-25 18:57:00,
2013-06-25 15:04:00,88.5,70.3,29.96,WNW,303,1.0,5.0,55,0.00,,,0.00,meteohub,2013-06-25 19:04:00,
2013-06-25 15:10:00,89.1,72.3,29.96,NW,323,2.0,5.0,58,0.00,,,0.00,meteohub,2013-06-25 19:10:00,
2013-06-25 15:16:00,89.2,70.9,29.96,WNW,302,0.0,4.0,55,0.00,,,0.00,meteohub,2013-06-25 19:16:00,
2013-06-25 15:22:00,89.6,70.2,29.96,WNW,302,1.0,4.0,53,0.00,,,0.00,meteohub,2013-06-25 19:22:00,
2013-06-25 15:27:00,89.8,69.8,29.95,NW,309,2.0,4.0,52,0.00,,,0.00,meteohub,2013-06-25 19:27:00,
2013-06-25 15:32:00,90.0,70.0,29.95,NW,318,2.0,4.0,52,0.00,,,0.00,meteohub,2013-06-25 19:32:00,
2013-06-25 15:37:00,89.8,69.3,29.94,WNW,300,4.0,4.0,51,0.00,,,0.00,meteohub,2013-06-25 19:37:00,
2013-06-25 15:42:00,89.2,69.3,29.94,NNW,339,2.0,4.0,52,0.00,,,0.00,meteohub,2013-06-25 19:42:00,
2013-06-25 15:47:00,89.2,68.7,29.94,NW,322,1.0,4.0,51,0.00,,,0.00,meteohub,2013-06-25 19:47:00,
2013-06-25 15:52:00,89.4,68.9,29.94,WNW,298,2.0,5.0,51,0.00,,,0.00,meteohub,2013-06-25 19:52:00,
2013-06-25 15:57:00,89.4,68.9,29.93,NW,304,1.0,5.0,51,0.00,,,0.00,meteohub,2013-06-25 19:57:00,
2013-06-25 16:02:00,89.2,66.4,29.93,WNW,303,2.0,6.0,47,0.00,,,0.00,meteohub,2013-06-25 20:02:00,
2013-06-25 16:07:00,89.2,68.2,29.93,WNW,296,2.0,6.0,50,0.00,,,0.00,meteohub,2013-06-25 20:07:00,
2013-06-25 16:12:00,89.8,68.0,29.92,WNW,297,2.0,6.0,49,0.00,,,0.00,meteohub,2013-06-25 20:12:00,
2013-06-25 16:17:00,90.0,68.9,29.92,WNW,297,2.0,4.0,50,0.00,,,0.00,meteohub,2013-06-25 20:17:00,
2013-06-25 16:22:00,90.0,69.4,29.92,WNW,300,1.0,4.0,51,0.00,,,0.00,meteohub,2013-06-25 20:22:00,
2013-06-25 16:27:00,90.3,68.0,29.91,WNW,298,2.0,3.0,48,0.00,,,0.00,meteohub,2013-06-25 20:27:00,
2013-06-25 16:32:00,90.1,68.4,29.91,NW,317,4.0,4.0,49,0.00,,,0.00,meteohub,2013-06-25 20:32:00,
2013-06-25 16:37:00,90.1,67.8,29.91,NW,315,1.0,4.0,48,0.00,,,0.00,meteohub,2013-06-25 20:37:00,
2013-06-25 16:42:00,90.1,67.1,29.91,WNW,302,1.0,4.0,47,0.00,,,0.00,meteohub,2013-06-25 20:42:00,
2013-06-25 16:47:00,90.3,69.1,29.91,WNW,300,0.0,4.0,50,0.00,,,0.00,meteohub,2013-06-25 20:47:00,
2013-06-25 16:52:00,90.1,67.8,29.91,WNW,300,3.0,3.0,48,0.00,,,0.00,meteohub,2013-06-25 20:52:00,
2013-06-25 16:57:00,89.8,66.9,29.91,WNW,298,3.0,3.0,47,0.00,,,0.00,meteohub,2013-06-25 20:57:00,
2013-06-25 17:02:00,89.1,68.0,29.91,WNW,298,1.0,4.0,50,0.00,,,0.00,meteohub,2013-06-25 21:02:00,
2013-06-25 17:07:00,88.9,67.3,29.90,WNW,302,1.0,4.0,49,0.00,,,0.00,meteohub,2013-06-25 21:07:00,
2013-06-25 17:12:00,88.5,68.0,29.91,WNW,302,0.0,4.0,51,0.00,,,0.00,meteohub,2013-06-25 21:12:00,
2013-06-25 17:17:00,88.3,68.5,29.90,WNW,302,1.0,3.0,52,0.00,,,0.00,meteohub,2013-06-25 21:17:00,
2013-06-25 17:22:00,88.2,67.8,29.90,WNW,303,1.0,3.0,51,0.00,,,0.00,meteohub,2013-06-25 21:22:00,
2013-06-25 17:27:00,88.0,69.3,29.89,WNW,297,1.0,3.0,54,0.00,,,0.00,meteohub,2013-06-25 21:27:00,
2013-06-25 17:32:00,88.0,69.8,29.89,WNW,296,0.0,3.0,55,0.00,,,0.00,meteohub,2013-06-25 21:32:00,
2013-06-25 17:37:00,87.6,67.8,29.89,WNW,301,1.0,3.0,52,0.00,,,0.00,meteohub,2013-06-25 21:37:00,
2013-06-25 17:42:00,87.4,67.6,29.89,WNW,301,0.0,3.0,52,0.00,,,0.00,meteohub,2013-06-25 21:42:00,
2013-06-25 17:47:00,87.4,67.1,29.88,NW,311,2.0,2.0,51,0.00,,,0.00,meteohub,2013-06-25 21:47:00,
2013-06-25 17:53:00,87.3,67.5,29.88,WNW,302,1.0,2.0,52,0.00,,,0.00,meteohub,2013-06-25 21:53:00,
2013-06-25 17:59:00,87.1,68.4,29.88,WNW,299,2.0,3.0,54,0.00,,,0.00,meteohub,2013-06-25 21:59:00,
2013-06-25 18:05:00,86.9,68.2,29.88,NW,306,1.0,3.0,54,0.00,,,0.00,meteohub,2013-06-25 22:05:00,
2013-06-25 18:11:00,86.7,66.9,29.87,WNW,302,0.0,3.0,52,0.00,,,0.00,meteohub,2013-06-25 22:11:00,
2013-06-25 18:17:00,86.7,68.5,29.87,NW,321,0.0,2.0,55,0.00,,,0.00,meteohub,2013-06-25 22:17:00,
2013-06-25 18:22:00,86.5,67.5,29.87,NW,308,0.0,2.0,53,0.00,,,0.00,meteohub,2013-06-25 22:22:00,
2013-06-25 18:27:00,86.4,69.3,29.87,NW,308,1.0,2.0,57,0.00,,,0.00,meteohub,2013-06-25 22:27:00,
2013-06-25 18:32:00,86.4,68.4,29.87,NW,308,0.0,2.0,55,0.00,,,0.00,meteohub,2013-06-25 22:32:00,
2013-06-25 18:37:00,86.2,69.1,29.87,NW,308,0.0,2.0,57,0.00,,,0.00,meteohub,2013-06-25 22:37:00,
2013-06-25 18:42:00,86.2,68.7,29.87,NW,308,0.0,2.0,56,0.00,,,0.00,meteohub,2013-06-25 22:42:00,
2013-06-25 18:47:00,86.0,68.5,29.87,NW,308,0.0,2.0,56,0.00,,,0.00,meteohub,2013-06-25 22:47:00,
2013-06-25 18:52:00,85.8,68.9,29.87,NW,308,1.0,2.0,57,0.00,,,0.00,meteohub,2013-06-25 22:52:00,
2013-06-25 18:57:00,85.6,70.2,29.87,NW,308,0.0,2.0,60,0.00,,,0.00,meteohub,2013-06-25 22:57:00,
2013-06-25 19:02:00,85.6,69.6,29.87,NW,308,1.0,1.0,59,0.00,,,0.00,meteohub,2013-06-25 23:02:00,
2013-06-25 19:07:00,85.5,70.0,29.87,NW,308,0.0,1.0,60,0.00,,,0.00,meteohub,2013-06-25 23:07:00,
2013-06-25 19:12:00,85.3,70.3,29.87,NW,308,1.0,1.0,61,0.00,,,0.00,meteohub,2013-06-25 23:12:00,
2013-06-25 19:17:00,85.3,70.3,29.88,NW,308,0.0,1.0,61,0.00,,,0.00,meteohub,2013-06-25 23:17:00,
2013-06-25 19:22:00,84.9,70.0,29.88,NW,308,0.0,1.0,61,0.00,,,0.00,meteohub,2013-06-25 23:22:00,
2013-06-25 19:29:00,84.6,68.7,29.88,NW,308,1.0,1.0,59,0.00,,,0.00,meteohub,2013-06-25 23:29:00,
2013-06-25 19:35:00,84.4,69.4,29.88,NW,308,0.0,1.0,61,0.00,,,0.00,meteohub,2013-06-25 23:35:00,
2013-06-25 19:41:00,84.0,70.0,29.89,NW,308,0.0,1.0,63,0.00,,,0.00,meteohub,2013-06-25 23:41:00,
2013-06-25 19:47:00,83.8,69.4,29.89,NW,309,0.0,0.0,62,0.00,,,0.00,meteohub,2013-06-25 23:47:00,
2013-06-25 19:52:00,83.5,70.0,29.90,NW,309,0.0,0.0,64,0.00,,,0.00,meteohub,2013-06-25 23:52:00,
2013-06-25 19:57:00,83.3,69.8,29.91,NW,309,0.0,0.0,64,0.00,,,0.00,meteohub,2013-06-25 23:57:00,
2013-06-25 20:02:00,82.9,68.5,29.91,NW,309,0.0,0.0,62,0.00,,,0.00,meteohub,2013-06-26 00:02:00,
2013-06-25 20:09:00,82.6,69.6,29.91,NW,309,0.0,0.0,65,0.00,,,0.00,meteohub,2013-06-26 00:09:00,
2013-06-25 20:15:00,82.2,68.4,29.91,NW,309,0.0,0.0,63,0.00,,,0.00,meteohub,2013-06-26 00:15:00,
2013-06-25 20:21:00,81.9,67.6,29.91,NW,309,0.0,0.0,62,0.00,,,0.00,meteohub,2013-06-26 00:21:00,
2013-06-25 20:27:00,81.5,68.2,29.91,NW,309,0.0,0.0,64,0.00,,,0.00,meteohub,2013-06-26 00:27:00,
2013-06-25 20:32:00,81.1,67.8,29.92,NW,309,0.0,0.0,64,0.00,,,0.00,meteohub,2013-06-26 00:32:00,
2013-06-25 20:37:00,81.0,66.7,29.91,NW,309,0.0,0.0,62,0.00,,,0.00,meteohub,2013-06-26 00:37:00,
2013-06-25 20:42:00,80.8,66.9,29.92,NW,309,0.0,0.0,63,0.00,,,0.00,meteohub,2013-06-26 00:42:00,
2013-06-25 20:47:00,80.6,66.9,29.92,NW,309,0.0,1.0,63,0.00,,,0.00,meteohub,2013-06-26 00:47:00,
2013-06-25 20:52:00,80.4,67.1,29.93,NW,309,0.0,1.0,64,0.00,,,0.00,meteohub,2013-06-26 00:52:00,
2013-06-25 20:57:00,80.6,66.9,29.93,NW,309,0.0,1.0,63,0.00,,,0.00,meteohub,2013-06-26 00:57:00,
2013-06-25 21:02:00,81.0,67.1,29.94,NW,309,0.0,1.0,63,0.00,,,0.00,meteohub,2013-06-26 01:02:00,
2013-06-25 21:09:00,79.9,68.7,29.97,NNE,28,10.0,10.0,69,0.00,,,0.00,meteohub,2013-06-26 01:09:00,
2013-06-25 21:15:00,78.4,63.3,29.98,North,350,3.0,16.0,60,0.00,,,0.00,meteohub,2013-06-26 01:15:00,
2013-06-25 21:21:00,77.7,61.7,29.99,NNW,338,5.0,16.0,58,0.00,,,0.00,meteohub,2013-06-26 01:21:00,
2013-06-25 21:27:00,77.0,60.1,29.99,West,268,2.0,10.0,56,0.00,,,0.00,meteohub,2013-06-26 01:27:00,
2013-06-25 21:32:00,75.9,60.1,29.99,North,0,6.0,10.0,58,0.00,,,0.00,meteohub,2013-06-26 01:32:00,
2013-06-25 21:37:00,75.4,60.4,29.99,NW,315,1.0,10.0,60,0.00,,,0.00,meteohub,2013-06-26 01:37:00,
2013-06-25 21:42:00,74.8,60.4,29.98,NNE,33,2.0,7.0,61,0.00,,,0.00,meteohub,2013-06-26 01:42:00,
2013-06-25 21:49:00,73.9,60.6,29.98,NW,310,1.0,6.0,63,0.00,,,0.00,meteohub,2013-06-26 01:49:00,
2013-06-25 21:55:00,73.2,59.9,29.98,WSW,250,1.0,4.0,63,0.00,,,0.00,meteohub,2013-06-26 01:55:00,
2013-06-25 22:01:00,72.9,59.9,29.96,NNW,330,0.0,4.0,64,0.00,,,0.00,meteohub,2013-06-26 02:01:00,
2013-06-25 22:07:00,72.5,60.1,29.95,SSE,159,0.0,2.0,65,0.00,,,0.00,meteohub,2013-06-26 02:07:00,
2013-06-25 22:12:00,72.3,60.8,29.94,SSE,159,0.0,4.0,67,0.00,,,0.00,meteohub,2013-06-26 02:12:00,
2013-06-25 22:17:00,72.0,59.9,29.94,SSE,166,1.0,4.0,66,0.00,,,0.00,meteohub,2013-06-26 02:17:00,
2013-06-25 22:22:00,71.8,60.3,29.93,SSE,159,0.0,2.0,67,0.00,,,0.00,meteohub,2013-06-26 02:22:00,
2013-06-25 22:27:00,71.4,60.8,29.93,SSE,159,0.0,2.0,69,0.00,,,0.00,meteohub,2013-06-26 02:27:00,
2013-06-25 22:32:00,71.1,60.4,29.92,SSE,159,0.0,1.0,69,0.00,,,0.00,meteohub,2013-06-26 02:32:00,
2013-06-25 22:37:00,70.9,61.0,29.89,SE,143,0.0,2.0,71,0.00,,,0.00,meteohub,2013-06-26 02:37:00,
2013-06-25 22:42:00,70.5,60.3,29.89,SSE,162,0.0,2.0,70,0.00,,,0.00,meteohub,2013-06-26 02:42:00,
2013-06-25 22:47:00,70.5,60.3,29.89,NW,307,1.0,2.0,70,0.00,,,0.00,meteohub,2013-06-26 02:47:00,
2013-06-25 22:52:00,70.5,60.6,29.89,NNW,329,0.0,2.0,71,0.00,,,0.00,meteohub,2013-06-26 02:52:00,
2013-06-25 22:57:00,70.5,59.4,29.88,ESE,123,0.0,2.0,68,0.00,,,0.00,meteohub,2013-06-26 02:57:00,
2013-06-25 23:02:00,70.9,60.6,29.88,NW,309,0.0,2.0,70,0.00,,,0.00,meteohub,2013-06-26 03:02:00,
2013-06-25 23:07:00,70.2,60.3,29.89,NW,309,0.0,3.0,71,0.00,,,0.00,meteohub,2013-06-26 03:07:00,
2013-06-25 23:12:00,69.8,60.4,29.89,South,173,1.0,3.0,72,0.00,,,0.00,meteohub,2013-06-26 03:12:00,
2013-06-25 23:17:00,69.4,60.4,29.89,SSE,151,1.0,4.0,73,0.00,,,0.00,meteohub,2013-06-26 03:17:00,
2013-06-25 23:23:00,69.3,60.3,29.89,ENE,65,1.0,4.0,73,0.00,,,0.00,meteohub,2013-06-26 03:23:00,
2013-06-25 23:29:00,69.3,60.6,29.90,NNW,344,0.0,4.0,74,0.00,,,0.00,meteohub,2013-06-26 03:29:00,
2013-06-25 23:35:00,68.9,59.9,29.90,SE,130,0.0,3.0,73,0.00,,,0.00,meteohub,2013-06-26 03:35:00,
2013-06-25 23:41:00,68.9,60.3,29.89,ENE,77,0.0,0.0,74,0.00,,,0.00,meteohub,2013-06-26 03:41:00,
2013-06-25 23:47:00,68.7,60.1,29.90,ENE,77,0.0,0.0,74,0.00,,,0.00,meteohub,2013-06-26 03:47:00,
2013-06-25 23:52:00,68.7,60.1,29.89,ENE,77,0.0,0.0,74,0.00,,,0.00,meteohub,2013-06-26 03:52:00,
2013-06-25 23:57:00,68.7,60.1,29.89,East,83,0.0,0.0,74,0.00,,,0.00,meteohub,2013-06-26 03:57:00,